Location: New Mesquite
(33.1168°N, 96.4336°W)
Time: 11:35:48
(UTC+00:00)

NOAA 12 - Pass Details

Date: 08 December 2021
Orbit: 795 x 816 km, 98.5° (Epoch: 22 January)

Event Time Altitude Azimuth Distance (km) Brightness Sun altitude
Rises 12:28:20 0° 10° (N) 3,313 7.2 -10.1°
Reaches altitude 10° 12:30:41 10° 9° (N) 2,377 6.4 -9.7°
Maximum altitude 12:35:55 78° 284° (WNW) 818 4.0 -8.6°
Drops below altitude 10° 12:41:07 10° 199° (SSW) 2,355 6.6 -7.6°
Sets 12:43:26 0° 198° (SSW) 3,280 7.3 -7.2°
